TimeAKST,TemperatureF,Dew PointF,Humidity,Sea Level PressureIn,VisibilityMPH,Wind Direction,Wind SpeedMPH,Gust SpeedMPH,PrecipitationIn,Events,Conditions,WindDirDegrees,DateUTC
12:00 AM,6.8,3.2,85,29.62,8.0,Calm,Calm,-,N/A,Snow,Light Snow,0,2012-12-10 09:00:00
12:36 AM,6.8,3.2,85,29.62,4.0,Calm,Calm,-,N/A,Snow,Light Snow,0,2012-12-10 09:36:00
12:48 AM,6.8,1.4,79,29.63,4.0,Calm,Calm,-,N/A,Snow,Light Snow,0,2012-12-10 09:48:00
12:49 AM,6.8,1.4,79,29.63,4.0,Calm,Calm,-,N/A,Snow,Light Snow,0,2012-12-10 09:49:00
12:53 AM,6.8,1.4,79,29.63,5.0,Calm,Calm,-,N/A,Snow,Light Snow,0,2012-12-10 09:53:00
12:54 AM,6.8,1.4,79,29.63,5.0,Calm,Calm,-,N/A,Snow,Light Snow,0,2012-12-10 09:54:00
12:55 AM,5.9,2.1,84,29.63,5.0,Calm,Calm,-,0.00,Snow,Light Snow,0,2012-12-10 09:55:00
12:58 AM,6.8,1.4,79,29.63,5.0,Calm,Calm,-,N/A,Snow,Light Snow,0,2012-12-10 09:58:00
1:01 AM,6.8,1.4,79,29.63,5.0,Calm,Calm,-,N/A,Snow,Light Snow,0,2012-12-10 10:01:00
1:03 AM,6.8,1.4,79,29.63,5.0,Calm,Calm,-,N/A,Snow,Light Snow,0,2012-12-10 10:03:00
1:04 AM,6.8,1.4,79,29.63,5.0,Calm,Calm,-,N/A,Snow,Light Snow,0,2012-12-10 10:04:00
1:09 AM,6.8,1.4,79,29.63,5.0,Calm,Calm,-,N/A,Snow,Light Snow,0,2012-12-10 10:09:00
1:15 AM,6.8,1.4,79,29.63,4.0,Calm,Calm,-,N/A,Snow,Light Snow,0,2012-12-10 10:15:00
1:17 AM,6.8,1.4,79,29.63,4.0,Calm,Calm,-,N/A,Snow,Light Snow,0,2012-12-10 10:17:00
1:32 AM,6.8,1.4,79,29.64,4.0,Calm,Calm,-,N/A,Snow,Light Snow,0,2012-12-10 10:32:00
1:38 AM,6.8,3.2,85,29.64,4.0,Calm,Calm,-,N/A,Snow,Light Snow,0,2012-12-10 10:38:00
1:39 AM,6.8,3.2,85,29.64,4.0,Calm,Calm,-,N/A,Snow,Light Snow,0,2012-12-10 10:39:00
1:48 AM,6.8,3.2,85,29.64,5.0,Calm,Calm,-,N/A,Snow,Light Snow,0,2012-12-10 10:48:00
1:51 AM,6.8,3.2,85,29.64,6.0,Calm,Calm,-,N/A,Snow,Light Snow,0,2012-12-10 10:51:00
1:55 AM,6.3,2.5,84,29.64,7.0,Calm,Calm,-,0.00,Snow,Light Snow,0,2012-12-10 10:55:00
2:02 AM,6.8,3.2,85,29.64,5.0,Calm,Calm,-,N/A,Snow,Light Snow,0,2012-12-10 11:02:00
2:05 AM,6.8,3.2,85,29.64,4.0,Calm,Calm,-,N/A,Snow,Light Snow,0,2012-12-10 11:05:00
2:07 AM,6.8,3.2,85,29.64,4.0,Calm,Calm,-,N/A,Snow,Light Snow,0,2012-12-10 11:07:00
2:19 AM,6.8,3.2,85,29.64,3.0,Calm,Calm,-,N/A,Snow,Light Snow,0,2012-12-10 11:19:00
2:24 AM,6.8,3.2,85,29.64,5.0,Calm,Calm,-,N/A,Snow,Light Snow,0,2012-12-10 11:24:00
2:25 AM,6.8,3.2,85,29.64,6.0,Calm,Calm,-,N/A,Snow,Light Snow,0,2012-12-10 11:25:00
2:30 AM,6.8,3.2,85,29.63,7.0,Calm,Calm,-,N/A,Snow,Light Snow,0,2012-12-10 11:30:00
2:33 AM,6.8,3.2,85,29.64,7.0,Calm,Calm,-,N/A,Snow,Light Snow,0,2012-12-10 11:33:00
2:43 AM,6.8,3.2,85,29.64,7.0,Calm,Calm,-,N/A,Snow,Light Snow,0,2012-12-10 11:43:00
2:44 AM,6.8,3.2,85,29.64,7.0,Calm,Calm,-,N/A,Snow,Light Snow,0,2012-12-10 11:44:00
2:54 AM,6.8,3.2,85,29.64,10.0,Calm,Calm,-,N/A,Snow,Light Snow,0,2012-12-10 11:54:00
2:55 AM,6.6,2.8,84,29.64,10.0,Calm,Calm,-,0.00,Snow,Light Snow,0,2012-12-10 11:55:00
2:56 AM,6.8,3.2,85,29.64,10.0,Calm,Calm,-,N/A,Snow,Light Snow,0,2012-12-10 11:56:00
2:57 AM,6.8,3.2,85,29.64,10.0,Calm,Calm,-,N/A,Snow,Light Snow,0,2012-12-10 11:57:00
2:59 AM,6.8,3.2,85,29.64,10.0,Calm,Calm,-,N/A,Snow,Light Snow,0,2012-12-10 11:59:00
3:30 AM,6.8,3.2,85,29.65,7.0,Calm,Calm,-,N/A,Snow,Light Snow,0,2012-12-10 12:30:00
3:43 AM,6.8,3.2,85,29.65,4.0,Calm,Calm,-,N/A,Snow,Light Snow,0,2012-12-10 12:43:00
3:45 AM,6.8,3.2,85,29.65,4.0,Calm,Calm,-,N/A,Snow,Light Snow,0,2012-12-10 12:45:00
3:55 AM,7.0,3.2,84,29.64,5.0,Calm,Calm,-,0.00,Snow,Light Snow,0,2012-12-10 12:55:00
4:00 AM,6.8,3.2,85,29.64,4.0,Calm,Calm,-,N/A,Snow,Light Snow,0,2012-12-10 13:00:00
4:05 AM,6.8,3.2,85,29.65,4.0,Calm,Calm,-,N/A,Snow,Light Snow,0,2012-12-10 13:05:00
4:37 AM,6.8,3.2,85,29.64,3.0,Calm,Calm,-,N/A,Snow,Light Snow,0,2012-12-10 13:37:00
4:38 AM,6.8,3.2,85,29.64,3.0,Calm,Calm,-,N/A,Snow,Light Snow,0,2012-12-10 13:38:00
4:40 AM,6.8,3.2,85,29.64,3.0,Calm,Calm,-,N/A,Snow,Light Snow,0,2012-12-10 13:40:00
4:49 AM,6.8,3.2,85,29.64,4.0,Calm,Calm,-,N/A,Snow,Light Snow,0,2012-12-10 13:49:00
4:55 AM,7.0,3.4,85,29.64,6.0,Calm,Calm,-,0.01,Snow,Light Snow,0,2012-12-10 13:55:00
5:10 AM,6.8,3.2,85,29.64,9.0,Calm,Calm,-,N/A,Snow,Light Snow,0,2012-12-10 14:10:00
5:28 AM,6.8,3.2,85,29.64,9.0,Calm,Calm,-,N/A,Snow,Light Snow,0,2012-12-10 14:28:00
5:55 AM,7.7,4.1,85,29.65,7.0,Calm,Calm,-,0.00,Snow,Light Snow,0,2012-12-10 14:55:00
6:07 AM,8.6,3.2,79,29.65,4.0,Calm,Calm,-,N/A,Snow,Light Snow,0,2012-12-10 15:07:00
6:28 AM,8.6,3.2,79,29.65,4.0,Calm,Calm,-,N/A,Snow,Light Snow,0,2012-12-10 15:28:00
6:43 AM,8.6,3.2,79,29.65,4.0,Calm,Calm,-,N/A,Snow,Light Snow,0,2012-12-10 15:43:00
6:53 AM,8.6,3.2,79,29.65,2.5,Calm,Calm,-,N/A,Snow,Light Snow,0,2012-12-10 15:53:00
6:55 AM,7.7,4.1,85,29.65,2.5,Calm,Calm,-,0.01,Snow,Light Snow,0,2012-12-10 15:55:00
7:00 AM,8.6,5.0,85,29.65,2.5,Calm,Calm,-,N/A,Snow,Light Snow,0,2012-12-10 16:00:00
7:03 AM,8.6,5.0,85,29.65,3.0,Calm,Calm,-,N/A,Snow,Light Snow,0,2012-12-10 16:03:00
7:25 AM,6.8,3.2,85,29.65,4.0,Calm,Calm,-,N/A,Snow,Light Snow,0,2012-12-10 16:25:00
7:55 AM,7.9,4.3,85,29.65,3.0,Calm,Calm,-,0.01,Snow,Light Snow,0,2012-12-10 16:55:00
8:55 AM,7.3,3.7,85,29.65,3.0,Calm,Calm,-,0.00,Snow,Light Snow,0,2012-12-10 17:55:00
9:55 AM,7.7,4.1,85,29.66,3.0,Calm,Calm,-,0.00,Snow,Light Snow,0,2012-12-10 18:55:00
10:21 AM,8.6,5.0,85,29.66,2.0,Calm,Calm,-,N/A,Snow,Light Snow,0,2012-12-10 19:21:00
10:55 AM,8.4,4.6,85,29.67,2.0,Calm,Calm,-,0.01,Snow,Light Snow,0,2012-12-10 19:55:00
11:13 AM,8.6,5.0,85,29.67,2.5,Calm,Calm,-,N/A,Snow,Light Snow,0,2012-12-10 20:13:00
11:25 AM,8.6,5.0,85,29.67,3.0,Calm,Calm,-,N/A,Snow,Light Snow,0,2012-12-10 20:25:00
11:55 AM,8.2,4.5,85,29.68,3.0,Calm,Calm,-,0.01,Snow,Light Snow,0,2012-12-10 20:55:00
12:55 PM,8.2,4.3,84,29.68,3.0,Calm,Calm,-,0.01,Snow,Light Snow,0,2012-12-10 21:55:00
1:55 PM,7.3,3.2,83,29.68,3.0,Calm,Calm,-,0.00,Snow,Light Snow,0,2012-12-10 22:55:00
2:55 PM,7.0,2.8,83,29.69,5.0,Calm,Calm,-,0.00,Snow,Light Snow,0,2012-12-10 23:55:00
3:55 PM,6.1,2.1,84,29.70,6.0,Calm,Calm,-,0.00,Snow,Light Snow,0,2012-12-11 00:55:00
4:55 PM,4.8,0.9,84,29.71,9.0,Calm,Calm,-,0.00,Snow,Light Snow,0,2012-12-11 01:55:00
5:52 PM,3.2,-0.4,85,29.72,10.0,Calm,Calm,-,N/A,Snow,Light Snow,0,2012-12-11 02:52:00
5:55 PM,3.7,-0.4,83,29.72,10.0,Calm,Calm,-,0.00,Snow,Light Snow,0,2012-12-11 02:55:00
6:56 PM,1.4,-4.0,78,29.79,10.0,Calm,Calm,-,N/A,,Overcast,0,2012-12-11 03:56:00
7:55 PM,2.3,-1.7,84,29.77,8.0,Calm,Calm,-,0.00,Snow,Light Snow,0,2012-12-11 04:55:00
8:55 PM,2.3,-1.7,84,29.78,6.0,Calm,Calm,-,0.00,Snow,Light Snow,0,2012-12-11 05:55:00
9:55 PM,3.7,-0.6,82,29.79,4.0,Calm,Calm,-,0.00,Snow,Light Snow,0,2012-12-11 06:55:00
10:55 PM,3.9,-0.4,82,29.80,5.0,Calm,Calm,-,0.00,Snow,Light Snow,0,2012-12-11 07:55:00
10:58 PM,3.2,-0.4,85,29.80,5.0,Calm,Calm,-,N/A,Snow,Light Snow,0,2012-12-11 07:58:00
10:59 PM,3.2,-0.4,85,29.80,5.0,Calm,Calm,-,N/A,Snow,Light Snow,0,2012-12-11 07:59:00
11:11 PM,3.2,-0.4,85,29.80,4.0,Calm,Calm,-,N/A,Snow,Light Snow,0,2012-12-11 08:11:00
11:23 PM,3.2,-0.4,85,29.81,4.0,Calm,Calm,-,N/A,Snow,Light Snow,0,2012-12-11 08:23:00
11:55 PM,3.0,-0.9,84,29.82,4.0,Calm,Calm,-,0.00,Snow,Light Snow,0,2012-12-11 08:55:00
11:57 PM,3.2,-0.4,85,29.82,4.0,Calm,Calm,-,N/A,Snow,Light Snow,0,2012-12-11 08:57:00
11:59 PM,3.2,-0.4,85,29.82,3.0,Calm,Calm,-,N/A,Snow,Light Snow,0,2012-12-11 08:59:00